User: anonymous   Login
Location: Kalberh�ni
(46.4610°N, 7.2453°E)
Time: 11:35:12
(UTC+00:00)
Language:

Cosmos 2360 Rocket - Orbit

View from above orbital plane
View from above orbital plane
View from above satellite
View from above satellite

Ground track
Ground track

The orbit data is extracted from the following two-line orbital elements,

1 25407U 98045B   21259.60384550 -.00000109  00000-0 -30964-4 0  9992
2 25407  71.0135  18.9212 0007943 341.5233  18.5600 14.15839684195648
Epoch (UTC): 16 September 2021 14:29:32
Eccentricity: 0.0007943
inclination: 71.0135°
perigee height: 834 km
apogee height: 845 km
right ascension of ascending node: 18.9212°
argument of perigee: 341.5233°
revolutions per day: 14.15839684
mean anomaly at epoch: 18.5600°
orbit number at epoch: 19564

The dashed part of the orbit path shows where the satellite is in the earth's shadow,  

DLR